This demonstration page uses our WeatherBlox Daily Observations layout. Learn more.

41.55636, -103.73856

Hourly Observations for February 25, 2019

Temp ( °F °C ) Dew Point ( °F °C ) Humidity (%) Winds ( mph kmh ) Pressure ( in mb ) Visibility ( mi km ) Precip ( " mm )
12:58 am 00:58 Clear 25 -3.8 17 -8.1 72 72 S 16 26 30.15 1021 10 16.0934 N/A
1:58 am 01:58 Clear 20 -6.7 17 -8.5 87 87 S 13 20 30.21 1023 10 16.0934 N/A
2:58 am 02:58 Clear 18 -8 15 -9.3 90 90 S 15 24 30.19 1022 10 16.0934 N/A
3:58 am 03:58 Clear 16 -9 14 -10.1 92 92 S 15 24 30.16 1021 10 16.0934 N/A
4:58 am 04:58 Clear 16 -8.9 14 -10.1 91 91 S 17 28 30.13 1020 10 16.0934 N/A
5:58 am 05:58 Mostly Clear 14 -10 12 -11.2 91 91 SSE 14 22 30.11 1020 7 11.26538 N/A
6:58 am 06:58 Clear 14 -10.1 11 -11.4 90 90 S 10 17 30.09 1019 10 16.0934 N/A
7:58 am 07:58 Clear 13 -10.3 11 -11.8 89 89 S 16 26 30.09 1019 10 16.0934 N/A
8:58 am 08:58 Clear 15 -9.5 12 -11.1 88 88 S 15 24 30.06 1018 10 16.0934 N/A
9:58 am 09:58 Clear 15 -9.7 12 -11.3 88 88 SSW 18 30 30.01 1016 10 16.0934 N/A
10:58 am 10:58 Clear 14 -9.9 11 -11.6 88 88 S 15 24 30.02 1017 10 16.0934 N/A
11:58 am 11:58 Clear 17 -8.6 12 -10.9 84 84 Calm 30.05 1018 10 16.0934 N/A
12:56 pm 12:56 Mostly Clear 16 -9 11 -11.6 82 82 SSE 9 15 30.06 1018 10 16.0934 N/A
1:56 pm 13:56 Mostly Cloudy 24 -4.5 15 -9.3 69 69 S 14 22 30.04 1017 10 16.0934 N/A
2:58 pm 14:58 Mostly Cloudy 31 -0.6 18 -8 58 58 WSW 15 24 30.04 1017 10 16.0934 N/A
3:58 pm 15:58 Mostly Sunny 38 3.4 16 -9 40 40 W 16 26 30.04 1017 10 16.0934 N/A
4:58 pm 16:58 Sunny 41 5 14 -9.8 34 34 NW 14 22 30.04 1017 10 16.0934 N/A
5:58 pm 17:58 Sunny 24 -4.5 16 -8.7 73 73 N 9 15 30.12 1020 10 16.0934 N/A
6:58 pm 18:58 Mostly Sunny 25 -3.9 18 -7.9 74 74 ENE 8 13 30.13 1020 10 16.0934 N/A
7:58 pm 19:58 Mostly Cloudy 17 -8.3 11 -11.6 77 77 ENE 12 19 30.15 1021 10 16.0934 N/A
8:58 pm 20:58 Mostly Cloudy 13 -10.3 8 -13.6 77 77 E 8 13 30.18 1022 10 16.0934 N/A
9:58 pm 21:58 Partly Cloudy 14 -10.2 7 -14.1 73 73 E 10 17 30.21 1023 10 16.0934 N/A
10:58 pm 22:58 Mostly Cloudy with Light Snow Showers 11 -11.7 5 -14.8 78 78 ENE 12 19 30.24 1024 10 16.0934 N/A
11:58 pm 23:58 Cloudy with Light Snow Showers 9 -12.6 5 -14.8 84 84 E 8 13 30.24 1024 10 16.0934 N/A

Powered by AerisWeather